SCP
0 0 0 -0 0 0 0 0 0 0 0 0 0 0 0 0 -0 -0 -0 0 -0 0 0 0 0 -0 -0 -0 -0 -0 -0 -0
0 0 0 0 0 0 0 0 0 0 0 0 0 0 0 0 -0 -0 0 0 -0 0 0 0 0 -0 -0 -0 -0 -0 -0 -0
0 0 -0 0 0 0 0 0 0 0 0 0 0 0 0 0 0 0 0 0 -0 -0 -0 0 0 -0 -0 -0 -0 -0 -0 -0
0 0 0 -0 -0 0 0 0 0 0 0 0 0 0 0 0 0 0 0 0 -0 -1 -0 -0 -0 0 -0 -0 -0 -0 -0 -0
0 -0 -0 -0 -0 0 0 0 0 0 0 0 0 0 0 0 0 0 0 0 -0 -1 -0 -0 -0 0 0 -0 -0 -0 -0 -0
0 0 0 -0 0 0 0 0 0 0 0 0 0 0 0 0 0 0 0 0 0 -0 -0 -0 -0 -0 0 0 -0 -0 -0 -0
0 -0 0 0 0 0 0 0 0 0 0 0 0 0 0 0 0 0 0 0 0 -0 -0 -0 0 -0 -0 0 -0 -0 -0 -0
0 0 0 -0 -0 -0 -0 0 -0 -0 0 0 0 0 0 0 0 0 0 0 0 0 0 0 0 0 -0 -0 -0 0 0 0
0 0 0 -0 -0 -0 -0 0 -0 -0 0 0 0 0 0 0 0 0 0 0 0 0 0 0 0 0 0 0 0 0 0 0
0 0 0 -0 -0 -0 -0 -0 -0 -0 -0 -0 0 0 0 0 0 0 0 0 0 0 0 0 0 0 0 0 0 0 0 0
0 0 0 0 0 -0 -0 -0 -0 -0 -0 -0 0 0 0 0 0 0 0 0 0 0 0 0 0 0 0 0 0 0 0 0
0 0 0 0 0 0 -0 -0 -0 -0 -0 -0 -0 -0 0 0 0 0 0 0 0 0 0 0 0 0 0 0 0 0 0 0
0 0 0 0 0 0 0 -0 -0 -0 -0 -0 -0 -0 0 0 0 0 0 0 0 0 0 0 0 0 0 0 0 0 0 0
0 0 0 0 0 0 0 0 0 0 -0 -0 0 0 0 0 0 0 0 0 0 1 0 0 0 0 0 0 0 0 0 0
0 0 0 0 0 0 0 0 0 0 0 0 0 0 0 0 0 0 0 0 0 1 1 0 0 0 0 0 0 0 0 0
0 0 0 0 0 0 0 0 0 0 0 0 0 0 0 0 0 0 0 0 0 1 1 1 0 0 0 0 0 0 0 0
0 0 0 0 0 -0 0 0 0 0 0 0 0 0 0 0 0 0 0 0 0 0 1 1 0 0 0 0 0 0 0 0
0 0 0 0 -0 -0 -0 0 0 0 0 -0 -0 0 0 0 0 0 0 0 0 0 0 0 1 1 1 1 0 0 1 0
-0 -0 -0 -0 -0 -0 -0 0 0 0 0 0 -0 -0 0 0 0 0 0 0 0 0 0 0 0 1 0 0 0 1 1 1
0 0 -0 -0 -0 -0 -0 0 0 0 0 0 0 0 -0 -0 0 0 0 0 0 0 0 0 0 0 1 1 1 1 1 1
Wind_Speed_500mb
7 6 11 9 10 11 10 33 16 13 49 15 9 21 36 30 84 81 77 77 77 77 75 73 68 64 60 57 53 48 45 41
8 17 9 7 5 11 16 14 14 24 20 22 18 11 42 47 80 83 78 78 78 79 77 75 71 66 61 56 51 46 42 38
4 12 6 7 14 20 11 19 36 32 14 27 23 13 28 66 82 86 83 81 81 80 77 76 71 66 62 57 52 46 41 37
9 16 4 6 19 17 3 17 32 33 34 17 70 24 35 85 84 85 84 82 80 79 76 74 71 67 63 57 51 45 41 37
9 13 5 6 3 6 5 13 14 38 8 33 79 31 15 84 84 88 83 85 82 81 77 72 71 68 63 58 51 46 41 37
9 23 9 7 9 17 18 11 30 28 11 27 67 35 22 82 86 89 87 84 82 82 80 76 72 68 64 59 53 48 43 38
25 8 8 13 9 7 13 25 33 9 16 45 63 35 22 68 77 89 91 88 85 82 80 76 72 69 66 61 56 51 46 41
3 8 14 28 10 24 13 37 18 24 43 49 52 31 18 51 68 83 90 89 88 86 82 79 74 69 67 64 61 57 51 48
1 3 16 17 12 22 11 25 5 42 54 53 36 27 33 30 61 84 89 92 92 87 82 80 76 72 69 67 64 58 54 52
8 19 21 10 27 25 37 37 40 32 48 41 40 37 29 25 35 70 83 85 87 86 85 81 77 72 70 68 65 59 58 55
11 16 29 38 33 40 53 42 36 25 38 41 39 32 28 27 34 30 62 77 86 83 84 87 83 78 74 73 68 61 57 57
13 16 16 16 26 38 56 13 47 51 49 42 38 37 35 25 29 39 35 64 84 93 88 90 83 82 84 78 70 67 62 60
17 27 17 34 24 36 52 33 41 13 18 19 20 24 25 28 33 44 40 34 66 76 88 90 92 92 92 85 78 71 67 66
9 3 12 23 21 3 10 11 22 21 15 26 28 30 23 22 33 27 38 41 34 55 73 84 98 95 91 90 85 77 73 69
14 7 9 6 7 5 35 21 30 28 26 25 32 29 27 22 21 29 32 42 44 47 52 73 80 90 95 91 95 82 77 72
8 10 10 10 12 11 33 25 25 31 36 25 24 26 24 24 21 21 26 40 51 56 53 49 60 83 89 94 92 81 70 60
8 6 12 16 21 16 23 24 19 26 26 29 27 29 32 34 31 28 24 29 37 50 59 62 59 61 73 91 88 84 76 65
9 11 11 22 43 23 14 16 20 11 27 26 38 44 47 43 44 38 38 33 32 40 53 62 71 69 67 71 90 82 76 46
9 6 8 10 19 14 3 5 11 26 18 42 57 47 38 44 48 41 41 44 42 35 43 61 73 72 79 76 84 88 81 82
6 10 7 9 13 13 12 11 7 31 46 33 33 49 52 44 47 49 49 44 50 46 44 46 70 72 79 87 88 89 79 78
Wind_Direction_500mb
103 133 212 220 217 180 264 313 283 292 316 271 253 232 215 204 170 175 174 170 167 166 165 162 163 162 162 161 163 163 162 161
110 240 256 221 231 248 317 333 324 317 299 309 287 277 210 189 172 174 176 172 169 167 169 166 166 167 167 168 169 169 170 169
223 248 222 253 264 295 322 295 307 334 288 297 330 308 208 183 175 177 178 175 172 170 173 169 171 172 173 175 175 177 178 181
243 246 140 270 252 271 218 296 311 342 328 357 352 322 190 177 178 181 179 177 175 175 177 175 176 177 179 181 182 185 186 191
243 269 353 267 256 265 324 294 318 338 352 342 356 339 231 181 183 183 185 180 179 180 181 182 182 183 185 188 190 193 197 200
232 259 270 265 324 320 294 289 324 359 2 347 349 333 251 191 187 185 188 187 185 185 185 188 189 189 191 195 199 202 205 208
235 186 222 268 9 343 313 291 319 310 336 350 349 335 238 196 189 189 191 191 191 191 191 192 195 195 197 202 206 210 214 217
230 220 271 286 298 314 336 310 312 323 318 338 348 340 263 210 201 197 198 196 195 197 197 199 200 202 205 207 210 214 219 223
75 264 300 312 305 301 320 290 13 329 322 327 336 325 331 255 226 209 203 203 203 201 202 205 206 207 211 215 217 220 224 231
271 281 290 274 302 276 268 269 291 298 307 312 320 322 322 315 262 226 214 213 209 206 208 212 214 216 218 221 224 225 230 234
260 259 260 287 282 282 272 293 302 309 311 308 309 316 314 318 288 253 241 226 219 214 214 216 218 218 223 225 227 230 237 239
258 228 242 234 268 271 277 292 301 307 304 303 305 310 318 310 294 302 293 241 234 225 220 219 222 226 226 226 231 233 238 244
235 227 215 214 251 252 270 310 291 315 335 325 326 305 303 307 291 286 296 288 244 240 237 228 226 228 231 233 233 238 240 244
286 152 244 186 241 299 5 337 320 331 351 341 342 348 341 301 275 285 270 272 279 249 244 243 237 238 240 240 239 241 244 249
312 356 322 168 278 300 334 320 308 310 324 335 336 339 352 328 313 278 265 273 270 279 262 247 239 243 247 249 248 246 247 250
264 321 13 291 241 274 298 301 291 304 313 324 335 345 337 329 323 301 274 257 261 271 268 262 254 246 243 241 243 242 241 240
279 308 358 294 289 279 274 281 265 277 305 319 331 333 326 318 309 301 279 273 262 253 262 258 264 256 249 243 239 239 229 239
281 303 339 306 300 297 235 231 232 262 297 298 313 315 315 312 311 298 288 284 274 255 251 260 262 265 262 256 242 230 234 234
234 294 265 311 285 306 2 205 252 302 282 299 305 313 315 313 313 307 291 281 281 276 258 246 258 261 257 249 240 236 237 231
273 18 306 55 282 256 260 278 313 290 295 308 315 314 314 308 306 301 301 293 281 277 275 259 247 250 257 255 243 241 243 252
Wind_Speed_850mb
7 6 11 9 10 11 10 33 16 13 49 15 9 21 36 30 84 81 77 77 77 77 75 73 68 64 60 57 53 48 45 41
8 17 9 7 5 11 16 14 14 24 20 22 18 11 42 47 80 83 78 78 78 79 77 75 71 66 61 56 51 46 42 38
4 12 6 7 14 20 11 19 36 32 14 27 23 13 28 66 82 86 83 81 81 80 77 76 71 66 62 57 52 46 41 37
9 16 4 6 19 17 3 17 32 33 34 17 70 24 35 85 84 85 84 82 80 79 76 74 71 67 63 57 51 45 41 37
9 13 5 6 3 6 5 13 14 38 8 33 79 31 15 84 84 88 83 85 82 81 77 72 71 68 63 58 51 46 41 37
9 23 9 7 9 17 18 11 30 28 11 27 67 35 22 82 86 89 87 84 82 82 80 76 72 68 64 59 53 48 43 38
25 8 8 13 9 7 13 25 33 9 16 45 63 35 22 68 77 89 91 88 85 82 80 76 72 69 66 61 56 51 46 41
3 8 14 28 10 24 13 37 18 24 43 49 52 31 18 51 68 83 90 89 88 86 82 79 74 69 67 64 61 57 51 48
1 3 16 17 12 22 11 25 5 42 54 53 36 27 33 30 61 84 89 92 92 87 82 80 76 72 69 67 64 58 54 52
8 19 21 10 27 25 37 37 40 32 48 41 40 37 29 25 35 70 83 85 87 86 85 81 77 72 70 68 65 59 58 55
11 16 29 38 33 40 53 42 36 25 38 41 39 32 28 27 34 30 62 77 86 83 84 87 83 78 74 73 68 61 57 57
13 16 16 16 26 38 56 13 47 51 49 42 38 37 35 25 29 39 35 64 84 93 88 90 83 82 84 78 70 67 62 60
17 27 17 34 24 36 52 33 41 13 18 19 20 24 25 28 33 44 40 34 66 76 88 90 92 92 92 85 78 71 67 66
9 3 12 23 21 3 10 11 22 21 15 26 28 30 23 22 33 27 38 41 34 55 73 84 98 95 91 90 85 77 73 69
14 7 9 6 7 5 35 21 30 28 26 25 32 29 27 22 21 29 32 42 44 47 52 73 80 90 95 91 95 82 77 72
8 10 10 10 12 11 33 25 25 31 36 25 24 26 24 24 21 21 26 40 51 56 53 49 60 83 89 94 92 81 70 60
8 6 12 16 21 16 23 24 19 26 26 29 27 29 32 34 31 28 24 29 37 50 59 62 59 61 73 91 88 84 76 65
9 11 11 22 43 23 14 16 20 11 27 26 38 44 47 43 44 38 38 33 32 40 53 62 71 69 67 71 90 82 76 46
9 6 8 10 19 14 3 5 11 26 18 42 57 47 38 44 48 41 41 44 42 35 43 61 73 72 79 76 84 88 81 82
6 10 7 9 13 13 12 11 7 31 46 33 33 49 52 44 47 49 49 44 50 46 44 46 70 72 79 87 88 89 79 78
Wind_Direction_850mb
103 133 212 220 217 180 264 313 283 292 316 271 253 232 215 204 170 175 174 170 167 166 165 162 163 162 162 161 163 163 162 161
110 240 256 221 231 248 317 333 324 317 299 309 287 277 210 189 172 174 176 172 169 167 169 166 166 167 167 168 169 169 170 169
223 248 222 253 264 295 322 295 307 334 288 297 330 308 208 183 175 177 178 175 172 170 173 169 171 172 173 175 175 177 178 181
243 246 140 270 252 271 218 296 311 342 328 357 352 322 190 177 178 181 179 177 175 175 177 175 176 177 179 181 182 185 186 191
243 269 353 267 256 265 324 294 318 338 352 342 356 339 231 181 183 183 185 180 179 180 181 182 182 183 185 188 190 193 197 200
232 259 270 265 324 320 294 289 324 359 2 347 349 333 251 191 187 185 188 187 185 185 185 188 189 189 191 195 199 202 205 208
235 186 222 268 9 343 313 291 319 310 336 350 349 335 238 196 189 189 191 191 191 191 191 192 195 195 197 202 206 210 214 217
230 220 271 286 298 314 336 310 312 323 318 338 348 340 263 210 201 197 198 196 195 197 197 199 200 202 205 207 210 214 219 223
75 264 300 312 305 301 320 290 13 329 322 327 336 325 331 255 226 209 203 203 203 201 202 205 206 207 211 215 217 220 224 231
271 281 290 274 302 276 268 269 291 298 307 312 320 322 322 315 262 226 214 213 209 206 208 212 214 216 218 221 224 225 230 234
260 259 260 287 282 282 272 293 302 309 311 308 309 316 314 318 288 253 241 226 219 214 214 216 218 218 223 225 227 230 237 239
258 228 242 234 268 271 277 292 301 307 304 303 305 310 318 310 294 302 293 241 234 225 220 219 222 226 226 226 231 233 238 244
235 227 215 214 251 252 270 310 291 315 335 325 326 305 303 307 291 286 296 288 244 240 237 228 226 228 231 233 233 238 240 244
286 152 244 186 241 299 5 337 320 331 351 341 342 348 341 301 275 285 270 272 279 249 244 243 237 238 240 240 239 241 244 249
312 356 322 168 278 300 334 320 308 310 324 335 336 339 352 328 313 278 265 273 270 279 262 247 239 243 247 249 248 246 247 250
264 321 13 291 241 274 298 301 291 304 313 324 335 345 337 329 323 301 274 257 261 271 268 262 254 246 243 241 243 242 241 240
279 308 358 294 289 279 274 281 265 277 305 319 331 333 326 318 309 301 279 273 262 253 262 258 264 256 249 243 239 239 229 239
281 303 339 306 300 297 235 231 232 262 297 298 313 315 315 312 311 298 288 284 274 255 251 260 262 265 262 256 242 230 234 234
234 294 265 311 285 306 2 205 252 302 282 299 305 313 315 313 313 307 291 281 281 276 258 246 258 261 257 249 240 236 237 231
273 18 306 55 282 256 260 278 313 290 295 308 315 314 314 308 306 301 301 293 281 277 275 259 247 250 257 255 243 241 243 252